CW1509 Weather Reports


Display with metric or nautical units.
time (UTC)temp
F
wind
direction
speed
MPH
gust
MPH
rain 1hr
in
rain 24hr
in
rain mn
in
humidity
%
barometer
mb
20260902035947 83 240 2.0 4.0 0.00 0.00 0.00 81 1015.0
20260902035447 83 254 2.0 4.0 0.00 0.00 0.00 81 1015.1
20260902034924 83 251 2.0 4.0 0.00 0.00 0.00 81 1015.1
20260902034426 83 229 2.0 3.0 0.00 0.00 0.00 81 1015.1
20260902033924 83 248 1.0 4.0 0.00 0.00 0.00 81 1015.2
20260902033422 83 239 1.0 4.0 0.00 0.00 0.00 81 1015.1
20260902032922 83 255 2.0 3.0 0.00 0.00 0.00 81 1015.1
20260902032442 83 192 2.0 3.0 0.00 0.00 0.00 81 1015.1
20260902031921 83 234 2.0 3.0 0.00 0.00 0.00 81 1015.1
20260902031421 83 261 2.0 3.0 0.00 0.00 0.00 81 1015.1
20260902030921 83 230 2.0 3.0 0.00 0.00 0.00 81 1015.1
20260902030422 83 225 2.0 4.0 0.00 0.00 0.00 81 1015.1
20260902025943 84 236 2.0 4.0 0.00 0.00 0.00 81 1015.1
20260902025420 84 241 2.0 4.0 0.00 0.00 0.00 81 1015.1
20260902024920 84 244 2.0 3.0 0.00 0.00 0.00 81 1015.2
20260902024421 84 255 1.0 4.0 0.00 0.00 0.00 81 1015.1
20260902023920 84 257 2.0 4.0 0.00 0.00 0.00 81 1015.0
20260902023420 84 215 2.0 4.0 0.00 0.00 0.00 81 1015.0
20260902022919 84 262 2.0 7.0 0.00 0.00 0.00 80 1015.0
20260902022430 84 250 1.0 7.0 0.00 0.00 0.00 80 1014.9
20260902021931 84 242 1.0 3.0 0.00 0.00 0.00 80 1014.8
20260902021431 84 257 2.0 3.0 0.00 0.00 0.00 80 1014.8
20260902020932 84 225 1.0 3.0 0.00 0.00 0.00 80 1014.8
20260902020453 85 200 1.0 2.0 0.00 0.01 0.00 80 1014.8
20260902015915 85 239 0.0 4.0 0.00 0.01 0.00 80 1014.8
20260902015444 85 173 1.0 4.0 0.00 0.01 0.00 80 1014.7
20260902014924 85 199 0.0 3.0 0.00 0.01 0.00 79 1014.7
20260902014425 85 231 1.0 3.0 0.00 0.01 0.00 79 1014.7
20260902013924 85 193 2.0 3.0 0.00 0.01 0.00 79 1014.8
20260902013444 85 165 1.0 4.0 0.00 0.01 0.00 79 1014.8
20260902012921 85 223 0.0 4.0 0.00 0.01 0.00 79 1014.7
20260902012421 85 228 1.0 3.0 0.00 0.01 0.00 79 1014.7
20260902011920 85 227 0.0 3.0 0.00 0.01 0.00 79 1014.8
20260902011439 85 217 1.0 3.0 0.00 0.01 0.00 79 1014.7
20260902010916 85 237 1.0 3.0 0.00 0.01 0.00 78 1014.6
20260902010437 85 191 0.0 3.0 0.00 0.01 0.00 78 1014.7
20260902005915 85 163 0.0 3.0 0.00 0.01 0.00 78 1014.7
20260902005415 86 179 1.0 2.0 0.00 0.01 0.00 78 1014.6
20260902004943 86 186 0.0 1.0 0.00 0.01 0.00 78 1014.7
20260902004421 86 173 0.0 1.0 0.00 0.01 0.00 77 1014.7
20260902003921 86 189 0.0 0.0 0.00 0.01 0.00 77 1014.7
20260902003419 86 180 0.0 0.0 0.00 0.01 0.00 77 1014.7
20260902002919 86 180 0.0 2.0 0.00 0.01 0.00 77 1014.8
20260902002418 87 202 0.0 2.0 0.00 0.01 0.00 77 1014.8
20260902001918 87 202 0.0 1.0 0.00 0.01 0.00 77 1014.8
20260902001418 87 202 0.0 1.0 0.00 0.01 0.00 77 1014.7
20260902000916 87 202 0.0 1.0 0.00 0.01 0.00 77 1014.8
20260902000415 87 202 0.0 1.0 0.00 0.01 0.00 77 1014.7
20260901235935 87 202 0.0 1.0 0.00 0.01 0.00 76 1014.7
20260901235453 88 203 0.0 1.0 0.00 0.01 0.00 76 1014.8
20260901234932 88 202 0.0 0.0 0.00 0.01 0.00 75 1014.9
20260901234431 88 203 0.0 0.0 0.00 0.01 0.00 75 1014.9
20260901233936 88 202 0.0 0.0 0.00 0.01 0.00 75 1014.9
20260901233414 88 203 0.0 0.0 0.00 0.01 0.00 74 1015.0
20260901232914 88 203 0.0 0.0 0.00 0.01 0.00 74 1015.0
20260901232433 88 203 0.0 0.0 0.00 0.01 0.00 74 1015.0
20260901231933 88 203 0.0 1.0 0.00 0.01 0.00 73 1015.0
20260901231432 88 203 0.0 2.0 0.00 0.01 0.00 73 1015.0
20260901230932 88 203 0.0 3.0 0.00 0.01 0.00 73 1015.0
20260901230423 88 197 1.0 3.0 0.00 0.01 0.00 73 1015.0
20260901225943 89 242 0.0 2.0 0.00 0.01 0.00 73 1015.0
20260901225420 89 242 0.0 3.0 0.00 0.01 0.00 72 1015.0
20260901224921 89 191 0.0 3.0 0.00 0.01 0.00 72 1015.1
20260901224419 89 167 1.0 3.0 0.00 0.01 0.00 72 1015.0
20260901223919 89 206 1.0 2.0 0.00 0.01 0.00 71 1015.0
20260901223419 89 228 0.0 3.0 0.00 0.01 0.00 71 1015.0
20260901222917 89 220 2.0 3.0 0.00 0.01 0.00 71 1015.0
20260901222418 89 228 2.0 3.0 0.00 0.01 0.00 71 1015.0
20260901221939 89 223 2.0 3.0 0.00 0.01 0.00 71 1015.1
20260901221415 89 243 1.0 3.0 0.00 0.01 0.00 71 1015.0
20260901220936 89 235 2.0 3.0 0.00 0.01 0.00 70 1015.1
20260901220435 90 221 1.0 4.0 0.00 0.01 0.00 70 1015.0
20260901215954 90 215 1.0 4.0 0.00 0.01 0.00 70 1014.9
20260901215431 90 223 1.0 5.0 0.00 0.01 0.00 70 1015.0
20260901214932 90 250 2.0 5.0 0.00 0.01 0.00 70 1015.0
20260901214430 90 231 1.0 6.0 0.00 0.01 0.00 70 1014.9
20260901213931 90 213 2.0 6.0 0.00 0.01 0.00 69 1014.8
20260901213427 90 240 2.0 6.0 0.00 0.01 0.00 70 1014.8
20260901212927 90 182 2.0 6.0 0.00 0.01 0.00 69 1014.8
20260901212445 90 191 2.0 5.0 0.00 0.01 0.00 69 1014.9
20260901211923 90 228 2.0 6.0 0.00 0.01 0.00 69 1015.0
20260901211423 90 213 3.0 6.0 0.00 0.01 0.00 69 1014.9
20260901210921 90 219 2.0 5.0 0.00 0.01 0.00 69 1014.9
20260901210421 90 253 2.0 6.0 0.00 0.01 0.00 68 1014.9
20260901205917 90 221 2.0 7.0 0.00 0.01 0.00 70 1014.9
20260901205416 90 171 2.0 7.0 0.00 0.01 0.00 71 1014.9
20260901204916 90 176 2.0 6.0 0.00 0.01 0.00 70 1014.9
20260901204416 90 165 2.0 6.0 0.00 0.01 0.00 71 1015.0
20260901203915 90 226 3.0 6.0 0.00 0.01 0.00 70 1015.0
20260901203414 90 217 3.0 5.0 0.00 0.01 0.00 70 1015.1
20260901202935 90 187 1.0 7.0 0.00 0.01 0.00 70 1015.0
20260901202432 90 225 2.0 7.0 0.00 0.01 0.00 71 1015.0
20260901201932 90 228 2.0 7.0 0.00 0.01 0.00 71 1015.0
20260901201432 90 217 3.0 5.0 0.00 0.01 0.00 71 1014.9
20260901200931 90 187 2.0 6.0 0.00 0.01 0.00 70 1015.0
20260901200429 90 190 3.0 6.0 0.00 0.01 0.00 72 1015.0
20260901195949 89 210 1.0 5.0 0.00 0.01 0.00 73 1015.0
20260901195426 89 165 2.0 4.0 0.00 0.01 0.00 74 1015.0
20260901194946 89 235 1.0 3.0 0.00 0.01 0.00 74 1015.2
20260901194424 89 215 0.0 3.0 0.00 0.01 0.00 74 1015.2
20260901193923 89 218 0.0 3.0 0.00 0.01 0.00 75 1015.4
20260901193421 88 136 0.0 3.0 0.00 0.01 0.00 74 1015.4
20260901192920 88 183 0.0 3.0 0.00 0.01 0.00 75 1015.5
20260901192419 88 246 0.0 4.0 0.00 0.01 0.00 75 1015.6
20260901191919 88 246 1.0 5.0 0.00 0.01 0.00 74 1015.7
20260901191418 88 127 1.0 3.0 0.00 0.01 0.00 75 1015.7
20260901190917 88 36 0.0 4.0 0.00 0.01 0.00 75 1015.8
20260901190416 88 217 2.0 4.0 0.00 0.01 0.00 75 1015.9
20260901185916 88 216 0.0 1.0 0.00 0.01 0.00 76 1015.9
20260901185415 88 271 0.0 3.0 0.00 0.01 0.00 75 1015.9
20260901184915 88 215 1.0 5.0 0.00 0.01 0.00 75 1016.0
20260901184416 88 219 2.0 5.0 0.00 0.01 0.00 75 1016.0
20260901183917 88 342 0.0 2.0 0.00 0.01 0.00 76 1016.0
20260901183418 87 215 1.0 3.0 0.00 0.01 0.00 76 1016.0
20260901182917 87 193 1.0 4.0 0.00 0.01 0.00 76 1015.8
20260901182518 87 221 2.0 4.0 0.00 0.01 0.00 75 1015.9
20260901181928 87 221 2.0 4.0 0.00 0.01 0.00 75 1015.9
20260901181427 87 164 1.0 4.0 0.00 0.01 0.00 76 1015.9
20260901180926 87 203 1.0 5.0 0.00 0.01 0.00 75 1015.8
20260901180446 87 180 2.0 5.0 0.00 0.01 0.00 75 1015.9
20260901175924 87 247 2.0 5.0 0.00 0.01 0.00 74 1016.1
20260901175444 88 240 2.0 5.0 0.00 0.01 0.00 74 1015.8
20260901174922 88 238 1.0 5.0 0.00 0.01 0.00 74 1015.8
20260901174423 88 222 1.0 5.0 0.00 0.01 0.00 74 1015.7
20260901173921 88 186 2.0 5.0 0.00 0.01 0.00 73 1015.8
20260901173420 88 269 2.0 4.0 0.00 0.01 0.00 75 1015.7
20260901172917 87 259 3.0 4.0 0.00 0.01 0.00 74 1015.7
20260901172419 87 228 0.0 3.0 0.00 0.01 0.00 74 1015.8
20260901171917 87 277 2.0 4.0 0.00 0.01 0.00 75 1015.8
20260901171416 87 194 2.0 4.0 0.00 0.01 0.00 75 1015.7
20260901170916 87 309 0.0 4.0 0.00 0.01 0.00 74 1015.7
20260901170417 86 271 2.0 4.0 0.00 0.01 0.00 74 1015.6
20260901165916 86 223 3.0 4.0 0.00 0.01 0.00 76 1015.7
20260901165414 86 175 1.0 6.0 0.00 0.01 0.00 76 1015.6
20260901164914 86 211 2.0 6.0 0.00 0.01 0.00 76 1015.5
20260901164433 86 251 2.0 4.0 0.00 0.01 0.00 75 1015.6
20260901163951 85 228 2.0 4.0 0.00 0.01 0.00 76 1015.7
20260901163428 85 221 0.0 3.0 0.00 0.01 0.00 77 1015.9
20260901162927 85 253 1.0 4.0 0.00 0.01 0.00 76 1015.8
20260901162427 85 224 2.0 4.0 0.00 0.01 0.00 75 1015.7
20260901161926 85 194 1.0 4.0 0.00 0.01 0.00 76 1015.7
20260901161423 84 198 1.0 4.0 0.00 0.01 0.00 78 1015.8
20260901160923 84 273 2.0 5.0 0.00 0.01 0.00 77 1015.8
20260901160421 83 255 2.0 5.0 0.00 0.01 0.00 78 1015.7
20260901155922 83 209 2.0 4.0 0.00 0.01 0.00 78 1015.6
20260901155421 83 178 1.0 4.0 0.00 0.01 0.00 79 1015.6
20260901153932 82 260 2.0 3.0 0.00 0.01 0.00 79 1015.6
20260901153431 81 223 1.0 3.0 0.00 0.01 0.00 80 1015.7
20260901151921 81 255 2.0 3.0 0.00 0.01 0.00 80 1015.8
20260901151422 80 259 1.0 3.0 0.00 0.01 0.00 81 1015.7
20260901150920 80 258 1.0 4.0 0.00 0.01 0.00 81 1015.7
20260901150420 80 186 1.0 4.0 0.00 0.01 0.00 81 1015.6
20260901145919 80 240 2.0 3.0 0.00 0.01 0.00 81 1015.8
20260901145416 80 284 1.0 4.0 0.00 0.01 0.00 82 1015.8
20260901144916 79 215 2.0 4.0 0.00 0.01 0.00 82 1015.9
20260901144417 79 236 1.0 4.0 0.00 0.01 0.00 82 1015.9
20260901143916 79 250 1.0 4.0 0.00 0.01 0.00 82 1016.0
20260901143416 79 215 1.0 3.0 0.00 0.01 0.00 83 1016.0
20260901142930 79 265 1.0 5.0 0.00 0.01 0.00 83 1015.9
20260901142430 79 219 2.0 5.0 0.00 0.01 0.00 83 1016.0
20260901141948 79 188 2.0 4.0 0.00 0.01 0.00 84 1015.8
20260901141425 78 233 2.0 7.0 0.00 0.01 0.00 84 1015.9
20260901140944 78 197 3.0 7.0 0.00 0.01 0.00 84 1015.8
20260901140422 78 213 0.0 4.0 0.00 0.01 0.00 85 1015.8
20260901135922 78 255 2.0 3.0 0.00 0.01 0.00 85 1015.8
20260901135442 78 234 1.0 3.0 0.00 0.01 0.00 85 1015.6
20260901134921 77 230 1.0 4.0 0.00 0.01 0.00 85 1015.8
20260901134419 77 230 1.0 4.0 0.00 0.01 0.00 85 1015.6
20260901133920 77 221 1.0 2.0 0.00 0.01 0.00 85 1015.6
20260901133419 77 180 0.0 0.0 0.00 0.01 0.00 86 1015.6
20260901132918 76 180 0.0 3.0 0.00 0.01 0.00 86 1015.5
20260901132441 76 180 0.0 3.0 0.00 0.01 0.00 86 1015.6
20260901131939 76 240 0.0 3.0 0.00 0.01 0.00 86 1015.8
20260901131417 76 206 0.0 3.0 0.00 0.01 0.00 86 1016.1
20260901130937 76 221 0.0 2.0 0.00 0.01 0.00 86 1016.1
20260901130456 76 173 0.0 4.0 0.00 0.01 0.00 86 1016.1
20260901125953 76 218 2.0 4.0 0.00 0.01 0.00 86 1016.2
20260901125431 75 253 1.0 3.0 0.00 0.01 0.00 86 1016.0
20260901124930 75 228 1.0 3.0 0.00 0.01 0.00 86 1015.9
20260901124429 75 252 1.0 3.0 0.00 0.01 0.00 86 1015.8
20260901123929 75 232 0.0 2.0 0.00 0.01 0.00 86 1015.7
20260901123429 75 213 0.0 2.0 0.00 0.01 0.00 86 1015.6
20260901122948 75 205 0.0 4.0 0.00 0.01 0.00 86 1015.7
20260901122426 75 260 1.0 3.0 0.00 0.01 0.00 86 1015.8
20260901121925 75 240 0.0 3.0 0.00 0.01 0.00 86 1015.8
20260901121426 75 228 0.0 3.0 0.00 0.01 0.00 86 1015.8
20260901120925 75 242 1.0 3.0 0.00 0.01 0.00 86 1015.8
20260901120425 75 221 1.0 2.0 0.00 0.01 0.00 86 1015.5
20260901115926 74 270 0.0 4.0 0.00 0.01 0.00 86 1015.5
20260901115445 74 270 1.0 4.0 0.00 0.01 0.00 86 1015.5
20260901114923 74 210 1.0 3.0 0.00 0.01 0.00 86 1015.5
20260901114424 74 227 1.0 3.0 0.00 0.01 0.00 86 1015.5
20260901113923 74 236 0.0 2.0 0.00 0.01 0.00 86 1015.5
20260901113421 74 210 1.0 2.0 0.00 0.01 0.00 85 1015.5
20260901112920 74 217 0.0 0.0 0.00 0.01 0.00 85 1015.3
20260901112435 74 217 0.0 2.0 0.00 0.01 0.00 85 1015.2
20260901111953 74 217 1.0 2.0 0.00 0.01 0.00 85 1015.1
20260901111431 74 219 0.0 0.0 0.00 0.01 0.00 85 1015.1
20260901110931 74 219 0.0 2.0 0.00 0.01 0.00 84 1015.1
20260901110430 74 219 0.0 2.0 0.00 0.01 0.00 84 1015.0
20260901105928 74 219 0.0 3.0 0.00 0.01 0.00 84 1015.0
20260901105429 74 219 1.0 3.0 0.00 0.01 0.00 84 1015.0
20260901104929 74 190 0.0 1.0 0.00 0.01 0.00 84 1014.9
20260901104448 74 190 0.0 0.0 0.00 0.01 0.00 84 1014.9
20260901103924 74 190 0.0 2.0 0.00 0.01 0.00 84 1015.0
20260901103425 74 190 0.0 2.0 0.00 0.01 0.00 84 1015.1
20260901102924 74 198 0.0 3.0 0.00 0.01 0.00 84 1014.9
20260901102422 74 192 0.0 2.0 0.00 0.01 0.00 84 1014.9
20260901101921 74 199 0.0 2.0 0.00 0.01 0.00 85 1014.9
20260901101421 74 207 0.0 2.0 0.00 0.01 0.00 85 1015.0
20260901100920 74 236 0.0 2.0 0.00 0.01 0.00 85 1015.1
20260901100421 74 222 1.0 3.0 0.00 0.01 0.00 85 1015.0
20260901095919 74 190 1.0 3.0 0.00 0.01 0.00 85 1015.0
20260901095419 74 209 0.0 2.0 0.00 0.01 0.00 85 1015.0
20260901094919 74 229 0.0 2.0 0.00 0.01 0.00 85 1015.0
20260901094418 74 231 1.0 2.0 0.00 0.01 0.00 85 1014.9
20260901093918 73 193 0.0 2.0 0.00 0.01 0.00 85 1014.8
20260901093437 73 193 0.0 2.0 0.00 0.01 0.00 85 1014.8
20260901092915 74 215 0.0 2.0 0.00 0.01 0.00 85 1014.9
20260901092440 73 215 0.0 0.0 0.00 0.01 0.00 85 1014.9
20260901091941 74 215 0.0 1.0 0.00 0.01 0.00 84 1014.8
20260901091420 74 215 0.0 1.0 0.00 0.01 0.00 84 1014.8
20260901090919 74 215 0.0 0.0 0.00 0.01 0.00 84 1014.8
20260901090418 74 215 0.0 0.0 0.00 0.01 0.00 84 1014.8
20260901085917 74 215 0.0 0.0 0.00 0.01 0.00 83 1014.8
20260901085436 74 215 0.0 0.0 0.00 0.01 0.00 83 1014.7
20260901084915 74 215 0.0 0.0 0.00 0.01 0.00 83 1014.6
20260901084415 74 215 0.0 0.0 0.00 0.01 0.00 83 1014.7
20260901083933 74 215 0.0 0.0 0.00 0.01 0.00 82 1014.7
20260901083432 74 215 0.0 0.0 0.00 0.01 0.00 82 1014.7
20260901082931 75 215 0.0 0.0 0.00 0.01 0.00 82 1014.7
20260901082431 75 215 0.0 0.0 0.00 0.01 0.00 82 1014.7
20260901081929 75 215 0.0 1.0 0.00 0.01 0.00 82 1014.7
20260901081428 75 215 0.0 2.0 0.00 0.01 0.00 81 1014.7
20260901080927 75 215 1.0 2.0 0.00 0.01 0.00 81 1014.6
20260901080425 75 188 0.0 0.0 0.00 0.01 0.00 81 1014.6
20260901075944 75 188 0.0 0.0 0.00 0.01 0.00 81 1014.6
20260901075423 75 227 0.0 0.0 0.00 0.01 0.00 81 1014.6
20260901074922 75 226 0.0 2.0 0.00 0.01 0.00 81 1014.6
20260901074442 75 226 0.0 2.0 0.00 0.01 0.00 81 1014.5
20260901073923 75 238 1.0 2.0 0.00 0.01 0.00 81 1014.5
20260901073420 75 242 1.0 2.0 0.00 0.01 0.00 80 1014.5
20260901072919 76 221 1.0 3.0 0.00 0.01 0.00 80 1014.5
20260901072420 76 242 1.0 3.0 0.00 0.01 0.00 80 1014.5
20260901071939 76 215 1.0 2.0 0.00 0.01 0.00 80 1014.5
20260901071420 76 227 0.0 2.0 0.00 0.01 0.00 80 1014.5
20260901070919 76 229 0.0 2.0 0.00 0.01 0.00 80 1014.4
20260901070427 76 229 0.0 2.0 0.00 0.01 0.00 80 1014.4
20260901065943 76 209 1.0 2.0 0.00 0.01 0.00 80 1014.5
20260901065421 76 240 0.0 2.0 0.00 0.01 0.00 80 1014.4
20260901064921 76 248 1.0 2.0 0.00 0.01 0.00 80 1014.4
20260901064442 76 216 0.0 2.0 0.00 0.01 0.00 80 1014.5
20260901063919 76 198 1.0 2.0 0.00 0.01 0.00 80 1014.5
20260901063419 76 233 1.0 2.0 0.00 0.01 0.00 81 1014.5
20260901062919 76 234 1.0 3.0 0.00 0.01 0.00 81 1014.5
20260901062426 76 234 1.0 3.0 0.00 0.01 0.00 81 1014.6
20260901061924 76 230 1.0 2.0 0.00 0.01 0.00 81 1014.6
20260901061425 75 215 0.0 2.0 0.00 0.01 0.00 81 1014.7
20260901060924 75 208 0.0 2.0 0.00 0.01 0.00 81 1014.6
20260901060444 75 208 0.0 2.0 0.00 0.01 0.00 82 1014.7
20260901055943 75 184 1.0 2.0 0.00 0.01 0.00 82 1014.7
20260901055423 75 230 1.0 2.0 0.00 0.01 0.00 82 1014.8
20260901054922 76 223 0.0 0.0 0.00 0.01 0.00 82 1014.8
20260901054422 76 223 0.0 0.0 0.00 0.01 0.00 82 1014.8
20260901053942 76 223 0.0 0.0 0.00 0.01 0.00 82 1014.8
20260901053419 76 223 0.0 0.0 0.00 0.01 0.00 82 1014.8
20260901052917 76 223 0.0 0.0 0.00 0.01 0.00 82 1014.8
20260901052416 76 223 0.0 0.0 0.00 0.01 0.00 82 1014.7
20260901051915 76 223 0.0 0.0 0.00 0.01 0.00 81 1014.7
20260901051433 76 223 0.0 0.0 0.00 0.01 0.00 82 1014.5
20260901050933 76 223 0.0 0.0 0.00 0.01 0.00 82 1014.5
20260901050432 76 223 0.0 0.0 0.00 0.01 0.00 81 1014.6
20260901045927 77 223 0.0 0.0 0.00 0.01 0.00 81 1014.5
20260901045447 77 223 0.0 0.0 0.00 0.01 0.00 81 1014.6
20260901044946 77 223 0.0 0.0 0.00 0.01 0.00 81 1014.6
20260901044423 77 223 0.0 0.0 0.00 0.01 0.00 81 1014.5
20260901043925 77 223 0.0 0.0 0.00 0.01 0.00 80 1014.6
20260901043423 77 223 0.0 2.0 0.00 0.01 0.00 80 1014.6
20260901042922 77 223 0.0 2.0 0.00 0.01 0.00 80 1014.6
20260901042423 77 223 0.0 0.0 0.00 0.01 0.00 80 1014.6
20260901041922 78 223 0.0 2.0 0.00 0.01 0.00 80 1014.6
20260901041422 78 223 0.0 2.0 0.00 0.01 0.00 80 1014.4
20260901040921 78 223 0.0 0.0 0.00 0.01 0.00 79 1014.5
20260901040440 78 223 0.0 0.0 0.00 0.01 0.01 79 1014.4